Home   Weather   Yonkers   Past weeks

Flag for USA Past Weather in Yonkers, New York, USA — Yesterday and Last 2 Weeks

Now
42 °F

Overcast.


Feels Like: 37 °F
Forecast: 33 / 43 °F
Wind: 9 mph from Southwest

Location: Teterboro Airport

Current Time: Dec 8, 2016 at 11:14:02 am

Latest Report: Dec 8, 2016 at 10:51 am


Visibility: 10 mi

Pressure: 29.94 "Hg

Humidity: 49%

Dew Point: 24 °F

Location of YonkersLocation

Past Weather in Yonkers — Graph

°F

Yonkers Temperature Yesterday

Maximum temperature yesterday: 47 °F (at 3:51 pm)
Minimum temperature yesterday: 39 °F (at 3:04 am)
Average temperature yesterday: 42 °F

High & Low Weather Summary for the Past Weeks

 TemperatureHumidityPressure
High61 °F (Nov 29, 5:51 pm)93% (Nov 26, 12:51 am)30.32 "Hg (Nov 26, 12:51 am)
Low30 °F (Nov 28, 5:51 am)34% (Dec 4, 2:51 pm)29.46 "Hg (Dec 1, 2:51 am)
Average45 °F66%30.03 "Hg
* Reported Nov 23 9:51 am — Dec 8 9:51 am, Yonkers, Weather by CustomWeather, © 2016

Note: Actual official high and low records may vary slightly from our data, if they occured in-between our weather recording intervals... More about our weather records

Advertising

Yonkers Weather History for the Previous 24 Hours

Scroll right to see more
 ConditionsComfort  
Time TempWeatherWind HumidityBarometerVisibility
9:51 am
Thu, Dec 8
41 °FOvercast.6 mph58%29.96 "Hg10 mi
8:51 am43 °FOvercast.7 mph62%29.97 "Hg10 mi
7:51 am41 °FScattered clouds.9 mph67%29.97 "Hg9 mi
6:51 am36 °FClear.No wind82%29.98 "Hg10 mi
5:51 am36 °FPassing clouds.No wind82%29.97 "Hg10 mi
4:51 am35 °FPassing clouds.No wind82%29.97 "Hg10 mi
3:51 am34 °FClear.No wind88%29.98 "Hg10 mi
2:51 am35 °FClear.No wind85%29.99 "Hg10 mi
1:51 am36 °FClear.No wind82%29.99 "Hg10 mi
12:51 am38 °FClear.No wind83%30.00 "Hg10 mi
11:51 pm
Wed, Dec 7
39 °FPassing clouds.No wind79%30.01 "Hg10 mi
10:51 pm42 °FClear.3 mph76%30.02 "Hg10 mi
9:51 pm41 °FClear.No wind76%30.02 "Hg10 mi
8:51 pm42 °FClear.No wind73%30.02 "Hg10 mi
7:51 pm44 °FClear.3 mph68%30.03 "Hg10 mi
6:51 pm45 °FPassing clouds.No wind65%30.03 "Hg10 mi
5:51 pm45 °FPassing clouds.5 mph63%30.03 "Hg10 mi
4:51 pm46 °FOvercast.7 mph61%30.02 "Hg10 mi
4:04 pm47 °FOvercast.8 mph64%29.99 "Hg10 mi
3:51 pm47 °FMostly cloudy.7 mph69%29.97 "Hg10 mi
2:51 pm46 °FFog.3 mph73%29.98 "Hg10 mi
1:58 pm45 °FFog.5 mph76%29.96 "Hg10 mi
12:58 pm44 °FFog.5 mph79%29.96 "Hg6 mi
11:51 am43 °FFog.3 mph79%29.97 "Hg5 mi
Weather by CustomWeather, © 2016

See weather overviewHow to use our weather pages